EW5282 Weather Reports


time (UTC)temp
F
wind
direction
speed
knots
gust
knots
rain 1hr
in
rain 24hr
in
rain mn
in
humidity
%
barometer
mb
20260504151020 71 257 1.7 9.6 0.00 0.00 0.00 38 1015.4
20260504150521 70 264 1.7 9.6 0.00 0.00 0.00 41 1015.5
20260504141019 65 86 0.9 7.0 0.00 0.00 0.00 44 1015.7
20260504140525 65 284 1.7 7.0 0.00 0.00 0.00 44 1015.8
20260504130520 55 175 0.9 2.6 0.00 0.00 0.00 64 1016.5
20260504110520 48 0 0.0 1.7 0.00 0.00 0.00 70 1016.8
20260504100519 49 0 0.0 0.0 0.00 0.00 0.00 66 1016.3
20260504081549 49 0 0.9 2.6 0.00 0.00 0.00 61 1016.6
20260504081019 49 236 0.0 2.6 0.00 0.00 0.00 62 1016.6
20260504080519 49 0 0.0 2.6 0.00 0.00 0.00 62 1016.6
20260504050519 49 0 0.0 1.7 0.00 0.00 0.00 64 1016.8
20260504045518 49 0 0.0 4.3 0.00 0.00 0.00 65 1016.7
20260504045018 49 0 0.0 5.2 0.00 0.00 0.00 64 1016.7
20260504044539 49 246 0.0 5.2 0.00 0.00 0.00 63 1016.8
20260504044021 49 0 0.0 0.9 0.00 0.00 0.00 64 1016.8
20260504043517 49 0 0.0 0.9 0.00 0.00 0.00 64 1016.9
20260504043040 49 0 0.0 1.7 0.00 0.00 0.00 61 1016.8
20260504042521 49 0 0.0 1.7 0.00 0.00 0.00 61 1016.7
20260504042021 49 0 0.0 1.7 0.00 0.00 0.00 60 1016.6
20260504041535 49 223 0.0 1.7 0.00 0.00 0.00 60 1016.6
20260504041021 49 0 0.0 1.7 0.00 0.00 0.00 60 1016.7
20260504040520 49 0 0.0 1.7 0.00 0.00 0.00 61 1016.7
20260504040035 49 0 0.0 0.0 0.00 0.00 0.00 61 1016.7
20260504035518 49 0 0.0 0.0 0.00 0.00 0.00 63 1016.7
20260504035020 49 0 0.0 0.0 0.00 0.00 0.00 64 1016.7
20260504034543 49 0 0.0 0.0 0.00 0.00 0.00 62 1016.6
20260504034024 49 0 0.0 0.0 0.00 0.00 0.00 62 1016.5
20260504033518 49 0 0.0 0.0 0.00 0.00 0.00 61 1016.6
20260504033041 49 0 0.0 0.0 0.00 0.00 0.00 61 1016.5
20260504032518 49 0 0.0 0.0 0.00 0.00 0.00 60 1016.5
20260504032020 49 0 0.0 0.0 0.00 0.00 0.00 61 1016.4
20260504031539 49 0 0.0 0.9 0.00 0.00 0.00 61 1016.6
20260504031021 49 0 0.0 0.9 0.00 0.00 0.00 60 1016.5
20260504030521 49 0 0.0 0.9 0.00 0.00 0.00 60 1016.6
20260504030039 49 0 0.0 0.0 0.00 0.00 0.00 60 1016.5
20260504025520 49 0 0.0 0.0 0.00 0.00 0.00 60 1016.4
20260504025019 49 0 0.0 0.0 0.00 0.00 0.00 60 1016.4
20260504024542 49 0 0.0 0.0 0.00 0.00 0.00 60 1016.5
20260504024018 49 0 0.0 0.0 0.00 0.00 0.00 60 1016.4
20260504023521 49 0 0.0 0.0 0.00 0.00 0.00 59 1016.5
20260504023040 49 0 0.0 0.0 0.00 0.00 0.00 59 1016.3
20260504022521 49 0 0.0 0.0 0.00 0.00 0.00 58 1016.4
20260504022018 49 0 0.0 0.0 0.00 0.00 0.00 58 1016.5
20260504021537 49 0 0.0 0.0 0.00 0.00 0.00 58 1016.2
20260504021019 49 0 0.0 0.0 0.00 0.00 0.00 58 1016.2
20260504020518 50 0 0.0 0.0 0.00 0.00 0.00 57 1016.2
20260504020040 50 0 0.0 0.0 0.00 0.00 0.00 57 1016.3
20260504015519 50 0 0.0 0.0 0.00 0.00 0.00 57 1016.2
20260504015030 50 0 0.0 0.0 0.00 0.00 0.00 56 1016.1
20260504014550 50 0 0.0 0.0 0.00 0.00 0.00 56 1016.0
20260504014025 50 0 0.0 0.0 0.00 0.00 0.00 56 1016.1
20260504013522 51 0 0.0 0.0 0.00 0.00 0.00 56 1015.9
20260504013041 51 0 0.0 0.0 0.00 0.00 0.00 55 1015.8
20260504012522 51 0 0.0 0.0 0.00 0.00 0.00 56 1015.8
20260504012018 51 0 0.0 0.0 0.00 0.00 0.00 56 1015.8
20260504011541 51 0 0.0 0.0 0.00 0.00 0.00 56 1015.8
20260504011021 52 0 0.0 0.0 0.00 0.00 0.00 56 1015.8
20260504010524 52 0 0.0 0.0 0.00 0.00 0.00 56 1015.9
20260504010046 52 0 0.0 0.0 0.00 0.00 0.00 55 1015.6
20260504005521 52 0 0.0 0.0 0.00 0.00 0.00 54 1015.6
20260504005024 52 0 0.0 0.0 0.00 0.00 0.00 56 1015.7
20260504004542 52 0 0.0 0.0 0.00 0.00 0.00 56 1015.7
20260504004020 52 0 0.0 0.0 0.00 0.00 0.00 54 1015.7
20260504003519 53 0 0.0 0.0 0.00 0.00 0.00 53 1015.5
20260504003042 53 0 0.0 0.0 0.00 0.00 0.00 52 1015.3
20260504002521 53 0 0.0 0.0 0.00 0.00 0.00 52 1015.4
20260504002021 53 0 0.0 0.0 0.00 0.00 0.00 54 1015.4
20260504001547 54 0 0.0 0.0 0.00 0.00 0.00 51 1015.4
20260504001022 54 0 0.0 0.0 0.00 0.00 0.00 52 1015.4
20260504000521 54 0 0.0 0.0 0.00 0.00 0.00 51 1015.4
20260504000044 55 0 0.0 0.0 0.00 0.00 0.00 50 1015.4
20260503235521 56 0 0.0 0.0 0.00 0.00 0.00 52 1015.3
20260503235021 56 0 0.0 0.0 0.00 0.00 0.00 45 1015.3
20260503234536 56 0 0.0 0.0 0.00 0.00 0.00 45 1015.3
20260503234021 57 0 0.0 0.0 0.00 0.00 0.00 45 1015.3
20260503233520 58 0 0.0 0.0 0.00 0.00 0.00 46 1015.2
20260503233045 58 0 0.0 1.7 0.00 0.00 0.00 42 1015.1
20260503232519 58 0 0.0 1.7 0.00 0.00 0.00 40 1015.0
20260503232020 59 0 0.0 0.9 0.00 0.00 0.00 41 1015.0
20260503231544 59 0 0.0 1.7 0.00 0.00 0.00 42 1015.0
20260503231022 59 0 0.0 1.7 0.00 0.00 0.00 39 1015.0
20260503230522 60 0 0.0 3.5 0.00 0.00 0.00 37 1015.0
20260503230040 60 152 0.0 3.5 0.00 0.00 0.00 38 1015.1
20260503225525 60 154 0.0 3.5 0.00 0.00 0.00 39 1015.1
20260503225021 61 184 0.0 2.6 0.00 0.00 0.00 36 1015.1
20260503224543 61 125 0.0 2.6 0.00 0.00 0.00 37 1015.0
20260503224023 61 0 0.0 2.6 0.00 0.00 0.00 36 1015.0
20260503223519 61 208 0.0 3.5 0.00 0.00 0.00 35 1015.1
20260503223036 62 246 0.9 3.5 0.00 0.00 0.00 35 1015.1
20260503222516 62 207 0.9 3.5 0.00 0.00 0.00 34 1015.1
20260503222020 62 188 0.9 3.5 0.00 0.00 0.00 34 1015.2
20260503221544 62 218 0.0 2.6 0.00 0.00 0.00 34 1015.1
20260503221017 63 244 0.0 3.5 0.00 0.00 0.00 35 1015.3
20260503220518 63 257 0.9 7.0 0.00 0.00 0.00 33 1015.1
20260503220052 64 195 1.7 7.0 0.00 0.00 0.00 34 1015.2
20260503215519 64 163 0.9 5.2 0.00 0.00 0.00 32 1015.3
20260503215019 64 261 0.9 3.5 0.00 0.00 0.00 32 1015.4
20260503214542 64 211 0.0 2.6 0.00 0.00 0.00 31 1015.3
20260503214019 65 182 0.0 2.6 0.00 0.00 0.00 35 1015.3
20260503213519 65 207 0.0 5.2 0.00 0.00 0.00 32 1015.3
20260503213041 64 198 1.7 5.2 0.00 0.00 0.00 33 1015.4
20260503212521 65 184 1.7 6.1 0.00 0.00 0.00 32 1015.3
20260503212021 65 224 1.7 7.0 0.00 0.00 0.00 32 1015.4
20260503211541 65 145 1.7 7.0 0.00 0.00 0.00 32 1015.4
20260503211021 65 250 0.9 7.0 0.00 0.00 0.00 33 1015.3
20260503210522 65 238 0.9 7.0 0.00 0.00 0.00 34 1015.3
20260503210054 65 0 0.9 6.1 0.00 0.00 0.00 34 1015.3
20260503205520 64 265 0.9 3.5 0.00 0.00 0.00 34 1015.5
20260503205021 64 0 0.9 3.5 0.00 0.00 0.00 30 1015.6
20260503204557 65 260 0.9 3.5 0.00 0.00 0.00 33 1015.7
20260503204022 65 153 0.9 7.0 0.00 0.00 0.00 32 1015.7
20260503203524 66 163 1.7 7.0 0.00 0.00 0.00 29 1015.7
20260503203041 65 261 0.9 4.3 0.00 0.00 0.00 31 1015.8
20260503202523 65 271 1.7 4.3 0.00 0.00 0.00 30 1016.1
20260503202022 65 156 0.9 2.6 0.00 0.00 0.00 36 1016.1
20260503201541 65 83 0.9 6.1 0.00 0.00 0.00 30 1016.2
20260503201020 64 130 1.7 7.8 0.00 0.00 0.00 31 1016.3
20260503200521 65 291 2.6 7.8 0.00 0.00 0.00 31 1016.2
20260503200045 65 157 2.6 7.0 0.00 0.00 0.00 31 1016.4
20260503195521 65 0 0.9 9.6 0.00 0.00 0.00 30 1016.4
20260503195020 65 331 0.9 9.6 0.00 0.00 0.00 32 1016.5
20260503194540 65 262 1.7 7.8 0.00 0.00 0.00 34 1016.6
20260503194021 64 231 0.9 7.8 0.00 0.00 0.00 32 1016.6
20260503193522 63 344 1.7 7.8 0.00 0.00 0.00 31 1016.6
20260503193044 64 175 1.7 7.0 0.00 0.00 0.00 29 1016.9
20260503192521 65 263 1.7 7.0 0.00 0.00 0.00 34 1017.0
20260503192025 64 274 1.7 6.1 0.00 0.00 0.00 34 1017.0
20260503191535 64 252 0.0 6.1 0.00 0.00 0.00 35 1017.1
20260503191024 65 219 0.9 6.1 0.00 0.00 0.00 34 1017.2
20260503190521 63 0 0.9 8.7 0.00 0.00 0.00 32 1017.3
20260503190046 64 165 1.7 8.7 0.00 0.00 0.00 30 1017.3
20260503185520 65 275 2.6 7.0 0.00 0.00 0.00 31 1017.4
20260503185025 65 293 0.9 5.2 0.00 0.00 0.00 32 1017.3
20260503184540 64 281 0.9 3.5 0.00 0.00 0.00 33 1017.5
20260503184021 63 0 0.9 5.2 0.00 0.00 0.00 33 1017.6
20260503183522 63 65 1.7 5.2 0.00 0.00 0.00 29 1017.6
20260503183045 65 263 0.9 5.2 0.00 0.00 0.00 32 1017.7
20260503182521 63 346 1.7 8.7 0.00 0.00 0.00 32 1017.8
20260503182021 63 47 2.6 8.7 0.00 0.00 0.00 33 1017.8
20260503181540 62 277 0.9 5.2 0.00 0.00 0.00 30 1017.8
20260503181021 62 253 1.7 5.2 0.00 0.00 0.00 34 1018.0
20260503180521 63 278 1.7 5.2 0.00 0.00 0.00 34 1018.1
20260503180059 63 262 1.7 5.2 0.00 0.00 0.00 35 1018.2
20260503175522 63 252 1.7 6.1 0.00 0.00 0.00 33 1018.2
20260503175021 61 228 0.9 6.1 0.00 0.00 0.00 35 1018.1
20260503174542 62 148 1.7 7.0 0.00 0.00 0.00 34 1018.0
20260503174022 61 240 2.6 7.0 0.00 0.00 0.00 34 1018.2
20260503173521 61 250 2.6 7.0 0.00 0.00 0.00 35 1018.2
20260503173122 61 274 1.7 5.2 0.00 0.00 0.00 36 1018.4
20260503172519 61 240 1.7 6.1 0.00 0.00 0.00 34 1018.2
20260503172019 60 262 1.7 6.1 0.00 0.00 0.00 33 1018.4
20260503171546 60 213 1.7 7.0 0.00 0.00 0.00 34 1018.5
20260503171020 61 277 1.7 8.7 0.00 0.00 0.00 34 1018.6
20260503170522 60 0 2.6 8.7 0.00 0.00 0.00 35 1018.5